Regional Weather Roundup
Issued by NWS

Home | Current Version | Previous Version | Text Only | Print | Product List | Glossary On
Versions: 1 2 3 4 5 6 7 8 9 10 11 12 13 14 15 16 17 18 19 20 21 22 23 24 25 26 27 28 29 30 31 32 33 34 35 36 37 38 39 40 41 42 43 44 45 46 47 48 49 50
000
ASUS43 KTOP 292008
RWRKS

WEATHER ROUNDUP FOR KANSAS
NATIONAL WEATHER SERVICE GOODLAND KS
300 PM CDT WED OCT 29 2014

NOTE:  "FAIR" INDICATES FEW OR NO CLOUDS BELOW 12,000 FEET WITH NO
SIGNIFICANT WEATHER AND/OR OBSTRUCTIONS TO VISIBILITY.

KSZ001>006-013>018-027>032-041>047-292100-
NORTHWEST KANSAS

CITY           SKY/WX    TMP DP  RH WIND       PRES   REMARKS
GOODLAND       SUNNY     70  21  15 W5        30.07F
HAYS           SUNNY     72  39  30 SW15G21   30.08F
HILL CITY      SUNNY     72  39  30 S12       30.06F
RUSSELL        SUNNY     70  39  32 SW16      30.08F
$$

KSZ061>065-074>080-084>089-292100-
SOUTHWEST KANSAS

CITY           SKY/WX    TMP DP  RH WIND       PRES   REMARKS
DODGE CITY     SUNNY     71  37  28 S20       30.10F
ELKHART          N/A     70  39  32 SW8         N/A
GARDEN CITY    SUNNY     70  39  32 SW20G28   30.09F
GREAT BEND     SUNNY     72  37  28 S17G26    30.09F
LIBERAL        SUNNY     72  39  30 S18G25    30.12F
PRATT          SUNNY     70  32  24 SW17G23   30.13F
$$

KSZ066>073-081>083-090>101-292100-
SOUTHEAST KANSAS

CITY           SKY/WX    TMP DP  RH WIND       PRES   REMARKS
CHANUTE        SUNNY     64  38  38 SE6       30.18F
COFFEYVILLE    SUNNY     68  37  32 VRB5      30.17F
HUTCHINSON     SUNNY     72  34  24 SW17G25   30.13F
MEDICINE LODGE   N/A     71  32  23 S14       30.13F
NEWTON         SUNNY     68  34  28 SW6       30.16F
PARSONS        SUNNY     67  37  33 S5        30.19F
WICHITA INTL   SUNNY     72  29  20 SW15      30.14F
WICHITA JABRA  SUNNY     70  31  23 SW10G21   30.14F
WICHITA MCCONL SUNNY     71  29  21 SW14      30.15F
WINFIELD       SUNNY     70  34  26 SW9       30.17F
$$

KSZ007>012-019>026-033>040-048>060-102>105-292100-
NORTHEAST KANSAS

CITY           SKY/WX    TMP DP  RH WIND       PRES   REMARKS
CONCORDIA      SUNNY     64  32  30 SE13G21   30.12F
EMPORIA        SUNNY     64  35  34 S7        30.17F
LAWRENCE       SUNNY     61  32  33 CALM      30.18F
MANHATTAN      SUNNY     64  34  32 MISG      30.15F
MARYSVILLE     SUNNY     59  34  38 S6        30.14F
OLATHE IND     SUNNY     60  35  39 N6        30.19F
OLATHE EXE     SUNNY     61  32  33 CALM      30.18F
SALINA         SUNNY     69  35  28 S12       30.12F
TOPEKA BILLARD SUNNY     62  31  31 CALM      30.18F
TOPEKA FORBES  SUNNY     62  32  32 VRB5      30.18F
$$



USA.gov is the U.S. government's official web portal to all federal, state and local government web resources and services.